Location: Newark
(43.6583°N, 1.6617°E)
Time: 15:41:17
(UTC+00:00)

Courier 1B - Pass Details

Date: 25 August 2019
Orbit: 962 x 1209 km, 28.3° (Epoch: 22 September)

Event Time Altitude Azimuth Distance (km) Brightness Sun altitude
Rises 16:29:13 0° 225° (SW) 3,863 11.4 22.9°
Reaches altitude 10° 16:33:00 10° 207° (SSW) 2,857 10.5 22.2°
Maximum altitude 16:37:20 18° 168° (SSE) 2,291 9.5 21.5°
Drops below altitude 10° 16:41:33 10° 129° (SE) 2,758 9.5 20.7°
Sets 16:45:06 0° 110° (ESE) 3,676 10.0 20.1°
